INMARSAT 5-F1

Last updated on Thu Oct 30 2025 00:02:49 GMT+0000 (Coordinated Universal Time)

1 39476U 13073A 25302.19558685 .00000039 00000+0 00000+0 0 9992 2 39476 0.0171 236.3940 0000501 253.1878 41.2628 1.00265736 43276
UTC large
Height (km)
Speed (km/s)
/
Latitude / Longitude
Inclination (degrees)
Orbital Period (minutes)
Azimuth
Elevation
Range (km)
Doppler Factor

Next 0 passes for location: London (51.5072 / 0.1276)

Sorry there are no passes over London.